Weather History for Lakeville, MN

Change the Weather History Date:

Friday, January 24, 2014

  Actual Average Record
Temperature  
Mean Temperature 16 °F -  
Max Temperature 32 °F 23 °F 59 °F (1981)
Min Temperature 1 °F 6 °F -25 °F (1982)
Degree Days  
Heating Degree Days 48    
Moisture  
Dew Point 15 °F    
Average Humidity 74    
Maximum Humidity 100    
Minimum Humidity 52    
Precipitation  
Precipitation 0.00 in - - ()
Sea Level Pressure  
Sea Level Pressure 29.68 in    
Wind  
Wind Speed 12 mph (WSW)    
Max Wind Speed 22 mph    
Max Gust Speed 31 mph    
Visibility 9 miles    
Events Snow    
Averages and records for this station are not official NWS values.
T = Trace of Precipitation, MM = Missing Value Source: NWS Daily Summary

Daily Weather History Graph

Daily Weather History Graph

Search for Another Location

Airport:

Trip Planner

Search our weather history database for the weather conditions in past years. The results will help you decide how hot, cold, wet, or windy it might be!

Date:

Astronomy

Jan. 24, 2014 Rise Set
Actual Time 7:39 AM CST 5:10 PM CST
Civil Twilight 7:08 AM CST 5:42 PM CST
Nautical Twilight 6:32 AM CST 6:17 PM CST
Astronomical Twilight 5:58 AM CST 6:52 PM CST
Moon 1:04 AM CST (1/24) 11:32 AM CST (1/24)
Length of Visible Light 10h 34m
Length of Day
9h 30m
Last Quarter, 44% of the Moon is Illuminated
Jan 24
Last Quarter
Jan 30
New
Feb 6
First Quarter
Feb 14
Full
Feb 22
Last Quarter

Hourly Weather History & Observations

Time (CST) Temp. Windchill Dew Point Humidity Pressure Visibility Wind Dir Wind Speed Gust Speed Precip Events Conditions
12:01 AM 1.4 °F -13.5 °F -7.6 °F 66% 30.17 in 10.0 mi SSW 9.2 mph - N/A   Clear
12:23 AM 3.2 °F -9.1 °F -7.6 °F 61% 30.14 in 10.0 mi SSW 6.9 mph - N/A   Clear
12:43 AM 6.8 °F -6.9 °F -5.8 °F 56% 30.11 in 10.0 mi SSW 9.2 mph 18.4 mph N/A   Clear
1:03 AM 8.6 °F -6.3 °F -5.8 °F 52% 30.09 in 10.0 mi SSW 11.5 mph 18.4 mph N/A   Clear
1:23 AM 8.6 °F -6.3 °F -5.8 °F 52% 30.06 in 10.0 mi SSW 11.5 mph 25.3 mph N/A   Clear
1:43 AM 8.6 °F -7.7 °F -5.8 °F 52% 30.03 in 10.0 mi SSW 13.8 mph 19.6 mph N/A   Clear
2:03 AM 8.6 °F -4.7 °F -4.0 °F 57% 30.00 in 10.0 mi SSW 9.2 mph 18.4 mph N/A   Clear
2:23 AM 10.4 °F -4.1 °F -2.2 °F 57% 29.98 in 10.0 mi SSW 11.5 mph 26.5 mph N/A   Scattered Clouds
2:43 AM 10.4 °F -4.1 °F -2.2 °F 57% 29.96 in 10.0 mi SW 11.5 mph 27.6 mph N/A   Clear
3:03 AM 12.2 °F -2.5 °F -0.4 °F 57% 29.94 in 10.0 mi SW 12.7 mph 23.0 mph N/A   Scattered Clouds
3:23 AM 12.2 °F -2.5 °F -0.4 °F 57% 29.92 in 10.0 mi SSW 12.7 mph 23.0 mph N/A   Overcast
3:43 AM 12.2 °F -0.2 °F 1.4 °F 62% 29.90 in 10.0 mi SW 9.2 mph 24.2 mph N/A   Overcast
4:03 AM 12.2 °F -0.2 °F 1.4 °F 62% 29.88 in 10.0 mi SW 9.2 mph 19.6 mph N/A   Overcast
4:23 AM 12.2 °F -1.0 °F 1.4 °F 62% 29.86 in 10.0 mi SW 10.4 mph 21.9 mph N/A   Overcast
4:43 AM 12.2 °F -1.0 °F 1.4 °F 62% 29.84 in 10.0 mi SW 10.4 mph 20.7 mph N/A   Overcast
5:03 AM 12.2 °F -1.0 °F 1.4 °F 62% 29.85 in 10.0 mi WSW 10.4 mph 19.6 mph N/A   Overcast
5:24 AM 12.2 °F -1.0 °F 3.2 °F 67% 29.84 in 10.0 mi SW 10.4 mph 16.1 mph N/A   Overcast
5:43 AM 14.0 °F 2.0 °F 3.2 °F 62% 29.83 in 10.0 mi SW 9.2 mph 17.3 mph N/A   Overcast
6:03 AM 14.0 °F 2.9 °F 3.2 °F 62% 29.82 in 10.0 mi SW 8.1 mph - N/A   Overcast
6:23 AM 14.0 °F 3.9 °F 5.0 °F 67% 29.80 in 10.0 mi SW 6.9 mph 16.1 mph N/A Snow Light Snow
6:43 AM 15.8 °F 5.1 °F 6.8 °F 68% 29.78 in 10.0 mi SW 8.1 mph 18.4 mph N/A   Mostly Cloudy
7:03 AM 15.8 °F 2.7 °F 6.8 °F 68% 29.76 in 10.0 mi SW 11.5 mph 20.7 mph N/A   Overcast
7:23 AM 17.6 °F 6.4 °F 8.6 °F 68% 29.76 in 10.0 mi WSW 9.2 mph 16.1 mph N/A   Overcast
7:43 AM 17.6 °F 5.7 °F 8.6 °F 68% 29.76 in 10.0 mi WSW 10.4 mph 19.6 mph N/A   Overcast
8:03 AM 19.4 °F 6.6 °F 8.6 °F 63% 29.75 in 10.0 mi WSW 12.7 mph 17.3 mph N/A   Overcast
8:23 AM 19.4 °F 7.9 °F 10.4 °F 68% 29.73 in 10.0 mi WSW 10.4 mph - N/A   Overcast
8:43 AM 19.4 °F 7.2 °F 10.4 °F 68% 29.72 in 10.0 mi SW 11.5 mph 18.4 mph N/A   Overcast
9:04 AM 19.4 °F 7.9 °F 10.4 °F 68% 29.71 in 10.0 mi WSW 10.4 mph 16.1 mph N/A   Overcast
9:23 AM 21.2 °F 9.5 °F 12.2 °F 68% 29.70 in 10.0 mi WSW 11.5 mph 18.4 mph N/A   Overcast
9:43 AM 21.2 °F 8.9 °F 12.2 °F 68% 29.71 in 10.0 mi WSW 12.7 mph 18.4 mph N/A   Overcast
10:03 AM 23.0 °F 11.1 °F 14.0 °F 68% 29.70 in 10.0 mi WSW 12.7 mph 21.9 mph N/A   Overcast
10:23 AM 23.0 °F 11.7 °F 15.8 °F 74% 29.68 in 10.0 mi WSW 11.5 mph 18.4 mph N/A   Overcast
10:43 AM 24.8 °F 13.4 °F 15.8 °F 69% 29.68 in 10.0 mi WSW 12.7 mph 18.4 mph N/A   Overcast
11:03 AM 24.8 °F 12.9 °F 17.6 °F 74% 29.67 in 10.0 mi WSW 13.8 mph 18.4 mph N/A   Overcast
11:23 AM 24.8 °F 14.6 °F 17.6 °F 74% 29.66 in 10.0 mi WSW 10.4 mph - N/A   Overcast
11:43 AM 26.6 °F 17.5 °F 17.6 °F 69% 29.64 in 10.0 mi WSW 9.2 mph - N/A   Overcast
12:03 PM 28.4 °F 19.7 °F 19.4 °F 69% 29.62 in 10.0 mi WSW 9.2 mph - N/A   Overcast
12:23 PM 28.4 °F 18.0 °F 21.2 °F 74% 29.59 in 10.0 mi WSW 12.7 mph 19.6 mph N/A   Scattered Clouds
12:43 PM 28.4 °F 18.0 °F 21.2 °F 74% 29.58 in 10.0 mi WSW 12.7 mph - N/A   Clear
1:03 PM 30.2 °F 18.1 °F 23.0 °F 75% 29.56 in 10.0 mi WSW 18.4 mph 23.0 mph N/A   Clear
1:23 PM 30.2 °F 18.5 °F 23.0 °F 75% 29.55 in 10.0 mi West 17.3 mph 23.0 mph N/A   Clear
1:43 PM 28.4 °F 18.0 °F 24.8 °F 86% 29.54 in 10.0 mi West 12.7 mph - N/A   Mostly Cloudy
2:03 PM 30.2 °F 19.8 °F 24.8 °F 80% 29.53 in 10.0 mi West 13.8 mph 20.7 mph N/A   Mostly Cloudy
2:23 PM 30.2 °F 18.9 °F 24.8 °F 80% 29.52 in 10.0 mi West 16.1 mph 25.3 mph N/A   Overcast
2:43 PM 30.2 °F 20.2 °F 24.8 °F 80% 29.52 in 10.0 mi West 12.7 mph 23.0 mph N/A   Overcast
3:03 PM 30.2 °F 18.5 °F 24.8 °F 80% 29.51 in 10.0 mi West 17.3 mph 24.2 mph N/A   Overcast
3:23 PM 30.2 °F 18.5 °F 26.6 °F 86% 29.51 in 10.0 mi West 17.3 mph - N/A   Mostly Cloudy
3:43 PM 30.2 °F 19.8 °F 26.6 °F 86% 29.50 in 10.0 mi West 13.8 mph 24.2 mph N/A   Clear
4:03 PM 30.2 °F 19.3 °F 26.6 °F 86% 29.49 in 1.0 mi West 15.0 mph 18.4 mph N/A Snow Snow
4:23 PM 30.2 °F 21.3 °F 28.4 °F 93% 29.48 in 0.5 mi West 10.4 mph - N/A Snow Snow
4:43 PM 30.2 °F 22.6 °F 28.4 °F 93% 29.48 in 0.8 mi WSW 8.1 mph - N/A Snow Snow
5:03 PM 30.2 °F 21.3 °F 28.4 °F 93% 29.48 in 1.0 mi West 10.4 mph 16.1 mph N/A Snow Light Snow
5:23 PM 30.2 °F 20.8 °F 30.2 °F 100% 29.48 in 1.2 mi West 11.5 mph 17.3 mph N/A Snow Snow
5:43 PM 30.2 °F 19.3 °F 30.2 °F 100% 29.47 in 2.0 mi West 15.0 mph 21.9 mph N/A Snow Light Snow
6:04 PM 32.0 °F 20.8 °F 30.2 °F 93% 29.47 in 1.8 mi West 17.3 mph 23.0 mph N/A Snow Light Snow
6:23 PM 32.0 °F 20.5 °F 30.2 °F 93% 29.47 in 4.0 mi West 18.4 mph - N/A Snow Light Snow
6:43 PM 32.0 °F 21.6 °F 30.2 °F 93% 29.48 in 7.0 mi West 15.0 mph 21.9 mph N/A   Overcast
7:03 PM 32.0 °F 21.2 °F 30.2 °F 93% 29.48 in 2.0 mi West 16.1 mph - N/A Snow Light Snow
7:23 PM 32.0 °F 22.1 °F 30.2 °F 93% 29.47 in 3.0 mi WNW 13.8 mph 24.2 mph N/A Snow Light Snow
7:43 PM 32.0 °F 22.5 °F 30.2 °F 93% 29.47 in 5.0 mi WNW 12.7 mph - N/A Snow Light Snow
8:03 PM 32.0 °F 20.5 °F 30.2 °F 93% 29.48 in 10.0 mi WNW 18.4 mph 21.9 mph N/A   Overcast
8:23 PM 32.0 °F 22.5 °F 28.4 °F 87% 29.48 in 10.0 mi NW 12.7 mph 26.5 mph N/A   Overcast
8:43 PM 32.0 °F 19.8 °F 28.4 °F 87% 29.47 in 10.0 mi WNW 20.7 mph 25.3 mph N/A   Overcast
9:03 PM 30.2 °F 18.5 °F 26.6 °F 86% 29.47 in 10.0 mi NW 17.3 mph 27.6 mph N/A   Mostly Cloudy
9:23 PM 30.2 °F 17.8 °F 26.6 °F 86% 29.49 in 10.0 mi WNW 19.6 mph - N/A   Overcast
9:43 PM 30.2 °F 17.1 °F 24.8 °F 80% 29.49 in 10.0 mi NW 21.9 mph 26.5 mph N/A   Scattered Clouds
10:03 PM 30.2 °F 18.1 °F 23.0 °F 75% 29.50 in 10.0 mi NW 18.4 mph 23.0 mph N/A   Overcast
10:23 PM 28.4 °F 16.6 °F 21.2 °F 74% 29.50 in 10.0 mi WNW 16.1 mph 29.9 mph N/A   Scattered Clouds
10:43 PM 28.4 °F 16.6 °F 21.2 °F 74% 29.51 in 10.0 mi WNW 16.1 mph - N/A   Scattered Clouds
11:03 PM 28.4 °F 15.1 °F 21.2 °F 74% 29.51 in 10.0 mi NW 20.7 mph 31.1 mph N/A   Mostly Cloudy
11:23 PM 28.4 °F 16.2 °F 19.4 °F 69% 29.53 in 10.0 mi WNW 17.3 mph 20.7 mph N/A   Mostly Cloudy
11:43 PM 26.6 °F 12.7 °F 17.6 °F 69% 29.53 in 10.0 mi NW 20.7 mph 28.8 mph N/A   Scattered Clouds